Hourly Data Report for August 25, 2004

All times are specified in Local Standard Time (LST). Add 1 hour to adjust for Daylight Saving Time where and when it is observed.

TORONTO CITY
ONTARIO

43°40'00.000" N
79°24'00.000" W
112.50 m
6158355
71508
XTO

Download Data

Hourly Data (August 2004)
Hourly Data Report for August 25, 2004
TIME Temp Definition
°C
Dew Point Definition
°C
Rel Hum Definition
%
Wind Dir Definition
10's deg

Wind Spd Definition
km/h
Visibility Definition
km
Stn Press Definition
kPa
Hmdx Definition


Wind Chill Definition


Weather Definition


00:00
01:00 18.7 16.0 84 LegendMM LegendMM LegendMM 100.65     LegendNANA
02:00 18.5 16.1 86 LegendMM LegendMM LegendMM 100.58     LegendNANA
03:00 18.3 16.6 90 LegendMM LegendMM LegendMM 100.56     LegendNANA
04:00 18.2 16.8 92 LegendMM LegendMM LegendMM 100.53     LegendNANA
05:00 18.5 17.4 93 LegendMM LegendMM LegendMM 100.51     LegendNANA
06:00 18.6 17.7 95 LegendMM LegendMM LegendMM 100.52     LegendNANA
07:00 18.8 17.9 95 LegendMM LegendMM LegendMM 100.53     LegendNANA
08:00 20.3 18.8 91 LegendMM LegendMM LegendMM 100.49 27   LegendNANA
09:00 22.0 19.3 85 LegendMM LegendMM LegendMM 100.47 29   LegendNANA
10:00 23.3 19.5 79 LegendMM LegendMM LegendMM 100.51 30   LegendNANA
11:00 24.1 19.6 76 LegendMM LegendMM LegendMM 100.50 31   LegendNANA
12:00 25.9 20.3 71 LegendMM LegendMM LegendMM 100.45 34   LegendNANA
13:00 26.4 20.1 68 LegendMM LegendMM LegendMM 100.43 34   LegendNANA
14:00
15:00 26.4 20.2 69 LegendMM LegendMM LegendMM 100.41 34   LegendNANA
16:00 26.7 20.5 69 LegendMM LegendMM LegendMM 100.39 35   LegendNANA
17:00 26.7 20.5 69 LegendMM LegendMM LegendMM 100.36 35   LegendNANA
18:00 26.2 20.3 70 LegendMM LegendMM LegendMM 100.32 34   LegendNANA
19:00 26.0 20.6 72 LegendMM LegendMM LegendMM 100.33 34   LegendNANA
20:00 25.7 20.6 73 LegendMM LegendMM LegendMM 100.35 34   LegendNANA
21:00 25.5 20.6 74 LegendMM LegendMM LegendMM 100.37 34   LegendNANA
22:00 24.4 20.1 77 LegendMM LegendMM LegendMM 100.37 32   LegendNANA
23:00 23.0 19.5 81 LegendMM LegendMM LegendMM 100.39 30   LegendNANA

Notes on Data Quality.

Legend

  • E = Estimated
  • M = Missing
  • NA = Not Available
Date modified: